Regional Weather Roundup
Issued by NWS

Home | Current Version | Previous Version | Graphics & Text | Print | Product List | Glossary On
Versions: 1 2 3 4 5 6 7 8 9 10 11 12 13 14 15 16 17 18 19 20 21 22 23 24 25 26 27 28 29 30 31 32 33 34 35 36 37 38 39 40 41 42 43 44 45 46 47 48 49 50
000
ASUS43 KLSX 230207
RWRMO

WEATHER SUMMARY FOR MISSOURI
NATIONAL WEATHER SERVICE SPRINGFIELD MO
800 PM CST SUN JAN 22 2017

NOTE: "FAIR" INDICATES FEW OR NO CLOUDS BELOW 12,000 FEET WITH NO
       SIGNIFICANT WEATHER AND/OR OBSTRUCTIONS TO VISIBILITY.
       CURRENT SKY AND/OR WEATHER CONDITIONS ARE NOT AVAILABLE FOR
       CHILLICOTHE AND FARMINGTON.

MOZ001>031-035>038-043-044-053-054-230300-
...NORTHERN AND WESTERN MISSOURI...

CITY           SKY/WX    TMP DP  RH WIND       PRES   REMARKS
KANSAS CTY INT CLOUDY    38  32  79 NW9       29.84R
KANSAS C DTWN  CLOUDY    40  34  79 NW9       29.84R
LEE`S SUMMIT   CLOUDY    38  34  85 NW10      29.83R
ST JOSEPH      CLOUDY    38  35  89 NW9       29.86R
CHILLICOTHE      N/A     39  35  86 NW8       29.81R
KIRKSVILLE     CLOUDY    38  36  92 NW12      29.75S

$$
MOZ066>068-077>081-088>096-101>105-230300-
...SOUTHWEST MISSOURI...

CITY           SKY/WX    TMP DP  RH WIND       PRES   REMARKS
SPRINGFIELD    CLOUDY    37  35  92 N22G30    29.77R WCI  26
JOPLIN         CLOUDY    35  34  96 N20       29.83R FOG     WCI  24
BRANSON        CLOUDY    43  43 100 NW14G22   29.72R

$$
MOZ032>034-039>042-045>050-055>058-069>072-230300-
...CENTRAL MISSOURI...

CITY           SKY/WX    TMP DP  RH WIND       PRES   REMARKS
COLUMBIA       CLOUDY    40  36  86 N13       29.75R
JEFFERSON CITY CLOUDY    41  36  82 NW7       29.76R
ROLLA          CLOUDY    41  39  93 NW16      29.70R
SEDALIA        CLOUDY    40  37  89 NW15      29.78R
WHITEMAN AFB   CLOUDY    39  39 100 NW13      29.77R
WARRENSBURG    CLOUDY    37  34  87 NW10      29.80S

$$
MOZ051-052-059>065-230300-
...EAST CENTRAL MISSOURI...

CITY           SKY/WX    TMP DP  RH WIND       PRES   REMARKS
ST LOUIS INTL  CLOUDY    46  37  71 N15G24    29.68R
SPIRIT OF STL  CLOUDY    44  38  79 N12       29.70R
ST CHARLES     CLOUDY    44  37  76 N13       29.70R

$$
MOZ072>076-082>087-097>100-106>115-230300-
...SOUTH CENTRAL AND SOUTHEAST MISSOURI...

CITY           SKY/WX    TMP DP  RH WIND       PRES   REMARKS
CAPE GIRARDEAU CLOUDY    53  47  79 N28G35    29.51R
FARMINGTON     LGT RAIN  49  39  68 N10G20    29.63R
POPLAR BLUFF   MOCLDY    53  48  83 N18G26    29.51R
WEST PLAINS    CLOUDY    45  40  82 N16G24    29.66R

$$



USA.gov is the U.S. government's official web portal to all federal, state and local government web resources and services.